| time (UTC) | temp F | wind direction | speed knots | gust knots | rain 1hr in | rain 24hr in | rain mn in | humidity % | barometer mb |
| 20260508110015 | 46 | 194 | 0.0 | 1.7 | 0.01 | 0.01 | 0.01 | 83 | 1011.6 |
| 20260508104514 | 46 | 194 | 0.0 | 0.9 | 0.01 | 0.01 | 0.01 | 82 | 1011.4 |
| 20260508103011 | 46 | 188 | 0.0 | 0.9 | 0.01 | 0.01 | 0.01 | 81 | 1011.6 |
| 20260508101510 | 45 | 180 | 0.0 | 1.7 | 0.00 | 0.00 | 0.00 | 81 | 1011.7 |
| 20260508100009 | 45 | 182 | 0.0 | 0.0 | 0.00 | 0.00 | 0.00 | 82 | 1011.3 |
| 20260508094511 | 44 | 182 | 0.0 | 0.0 | 0.00 | 0.00 | 0.00 | 82 | 1011.4 |
| 20260508093014 | 44 | 182 | 0.0 | 0.0 | 0.00 | 0.00 | 0.00 | 81 | 1011.6 |
| 20260508091506 | 45 | 182 | 0.0 | 0.9 | 0.00 | 0.00 | 0.00 | 81 | 1011.7 |
| 20260508090012 | 45 | 177 | 0.0 | 1.7 | 0.00 | 0.00 | 0.00 | 81 | 1011.8 |
| 20260508084504 | 45 | 175 | 0.0 | 0.9 | 0.00 | 0.00 | 0.00 | 81 | 1011.9 |
| 20260508083003 | 45 | 170 | 0.0 | 1.7 | 0.00 | 0.00 | 0.00 | 81 | 1011.8 |
| 20260508081501 | 45 | 178 | 0.0 | 0.0 | 0.00 | 0.00 | 0.00 | 80 | 1011.8 |
| 20260508080104 | 45 | 177 | 0.0 | 0.9 | 0.00 | 0.00 | 0.00 | 79 | 1011.9 |
| 20260508074558 | 46 | 175 | 0.0 | 3.5 | 0.00 | 0.00 | 0.00 | 78 | 1012.0 |
| 20260508073056 | 46 | 202 | 0.0 | 2.6 | 0.00 | 0.00 | 0.00 | 76 | 1012.1 |
| 20260508071555 | 47 | 209 | 0.0 | 2.6 | 0.00 | 0.00 | 0.00 | 75 | 1012.2 |
| 20260508070054 | 47 | 241 | 0.0 | 5.2 | 0.00 | 0.00 | 0.00 | 72 | 1012.2 |
| 20260508064550 | 47 | 210 | 1.7 | 9.6 | 0.00 | 0.00 | 0.00 | 70 | 1012.0 |
| 20260508063050 | 46 | 182 | 0.0 | 3.5 | 0.00 | 0.00 | 0.00 | 70 | 1012.2 |
| 20260508061547 | 46 | 171 | 0.0 | 2.6 | 0.00 | 0.00 | 0.00 | 71 | 1012.2 |
| 20260508060046 | 46 | 188 | 0.0 | 0.9 | 0.00 | 0.00 | 0.00 | 71 | 1012.2 |
| 20260508054545 | 46 | 188 | 0.0 | 0.0 | 0.00 | 0.00 | 0.00 | 71 | 1012.3 |
| 20260508053047 | 46 | 188 | 0.0 | 1.7 | 0.00 | 0.00 | 0.00 | 70 | 1012.5 |
| 20260508051541 | 47 | 188 | 0.0 | 0.0 | 0.00 | 0.00 | 0.00 | 70 | 1012.7 |
| 20260508050040 | 47 | 188 | 0.0 | 0.0 | 0.00 | 0.00 | 0.00 | 70 | 1012.7 |
| 20260508044540 | 47 | 188 | 0.0 | 1.7 | 0.00 | 0.00 | 0.00 | 69 | 1012.8 |
| 20260508043044 | 47 | 188 | 0.0 | 1.7 | 0.00 | 0.00 | 0.00 | 69 | 1012.8 |
| 20260508041538 | 47 | 189 | 0.0 | 1.7 | 0.00 | 0.00 | 0.00 | 70 | 1012.7 |
| 20260508040036 | 46 | 188 | 0.0 | 1.7 | 0.00 | 0.00 | 0.00 | 70 | 1012.7 |
| 20260508034534 | 46 | 198 | 0.0 | 1.7 | 0.00 | 0.00 | 0.00 | 70 | 1012.8 |
| 20260508033036 | 45 | 198 | 0.0 | 2.6 | 0.00 | 0.00 | 0.00 | 71 | 1013.0 |
| 20260508031534 | 43 | 236 | 0.0 | 1.7 | 0.00 | 0.00 | 0.00 | 74 | 1012.9 |
| 20260508030037 | 42 | 325 | 0.0 | 0.0 | 0.00 | 0.00 | 0.00 | 77 | 1013.0 |
| 20260508024538 | 43 | 325 | 0.0 | 0.0 | 0.00 | 0.00 | 0.00 | 74 | 1013.0 |
| 20260508023033 | 43 | 325 | 0.0 | 0.0 | 0.00 | 0.00 | 0.00 | 72 | 1012.9 |
| 20260508021533 | 44 | 325 | 0.0 | 0.0 | 0.00 | 0.00 | 0.00 | 71 | 1012.8 |
| 20260508020027 | 44 | 325 | 0.0 | 0.0 | 0.00 | 0.00 | 0.00 | 69 | 1012.6 |
| 20260508014514 | 45 | 325 | 0.0 | 0.0 | 0.00 | 0.00 | 0.00 | 66 | 1012.6 |
| 20260508013022 | 46 | 325 | 0.0 | 0.0 | 0.00 | 0.00 | 0.00 | 63 | 1012.5 |
| 20260508011515 | 47 | 325 | 0.0 | 0.0 | 0.00 | 0.00 | 0.00 | 60 | 1012.4 |
| 20260508010016 | 48 | 325 | 0.0 | 0.0 | 0.00 | 0.00 | 0.00 | 59 | 1012.3 |
| 20260508004522 | 49 | 325 | 0.0 | 0.0 | 0.00 | 0.00 | 0.00 | 56 | 1012.3 |
| 20260508003012 | 50 | 325 | 0.0 | 0.0 | 0.00 | 0.00 | 0.00 | 52 | 1012.3 |
| 20260508001517 | 51 | 325 | 0.0 | 0.0 | 0.00 | 0.00 | 0.00 | 52 | 1012.2 |
| 20260508000012 | 51 | 325 | 0.0 | 0.9 | 0.00 | 0.00 | 0.00 | 51 | 1012.1 |
| 20260507234511 | 51 | 283 | 0.0 | 0.9 | 0.00 | 0.00 | 0.00 | 50 | 1011.9 |
| 20260507233015 | 52 | 26 | 0.0 | 5.2 | 0.00 | 0.00 | 0.00 | 50 | 1011.9 |
| 20260507231510 | 53 | 44 | 0.0 | 1.7 | 0.00 | 0.00 | 0.00 | 48 | 1011.9 |
| 20260507230010 | 53 | 285 | 0.0 | 0.9 | 0.00 | 0.00 | 0.00 | 49 | 1012.1 |
| 20260507224509 | 53 | 360 | 0.0 | 2.6 | 0.00 | 0.00 | 0.00 | 48 | 1012.2 |
| 20260507223009 | 53 | 336 | 0.0 | 1.7 | 0.00 | 0.00 | 0.00 | 48 | 1012.0 |
| 20260507221516 | 53 | 51 | 0.0 | 2.6 | 0.00 | 0.00 | 0.00 | 48 | 1012.1 |
| 20260507220011 | 53 | 30 | 0.0 | 6.1 | 0.00 | 0.00 | 0.00 | 51 | 1011.9 |
| 20260507214509 | 53 | 105 | 0.0 | 2.6 | 0.00 | 0.00 | 0.00 | 50 | 1011.8 |
| 20260507213008 | 53 | 296 | 0.0 | 2.6 | 0.00 | 0.00 | 0.00 | 53 | 1011.8 |
| 20260507211506 | 54 | 309 | 0.0 | 2.6 | 0.00 | 0.00 | 0.00 | 55 | 1011.8 |
| 20260507210016 | 53 | 342 | 0.9 | 5.2 | 0.00 | 0.00 | 0.00 | 57 | 1011.6 |
| 20260507204505 | 53 | 325 | 0.9 | 3.5 | 0.00 | 0.00 | 0.00 | 57 | 1011.5 |
| 20260507203008 | 53 | 331 | 0.0 | 1.7 | 0.00 | 0.00 | 0.00 | 56 | 1011.3 |
| 20260507201508 | 54 | 273 | 0.0 | 2.6 | 0.00 | 0.00 | 0.00 | 51 | 1011.4 |
| 20260507200003 | 55 | 100 | 0.9 | 3.5 | 0.00 | 0.00 | 0.00 | 50 | 1011.1 |
| 20260507194503 | 55 | 241 | 1.7 | 7.0 | 0.00 | 0.00 | 0.00 | 50 | 1011.4 |
| 20260507193004 | 56 | 346 | 0.9 | 2.6 | 0.00 | 0.00 | 0.00 | 47 | 1011.5 |
| 20260507191601 | 57 | 225 | 0.0 | 7.8 | 0.00 | 0.00 | 0.00 | 47 | 1011.5 |
| 20260507190100 | 58 | 170 | 0.0 | 7.8 | 0.00 | 0.00 | 0.00 | 49 | 1011.6 |
| 20260507184606 | 57 | 293 | 2.6 | 8.7 | 0.00 | 0.00 | 0.00 | 48 | 1011.6 |
| 20260507183058 | 58 | 265 | 0.0 | 7.0 | 0.00 | 0.00 | 0.00 | 50 | 1011.7 |
| 20260507181557 | 55 | 209 | 0.9 | 3.5 | 0.00 | 0.00 | 0.00 | 54 | 1011.8 |
| 20260507174556 | 55 | 209 | 0.0 | 3.5 | 0.00 | 0.00 | 0.00 | 53 | 1011.8 |
| 20260507173054 | 56 | 355 | 0.0 | 1.7 | 0.00 | 0.00 | 0.00 | 51 | 1011.8 |
| 20260507171553 | 56 | 256 | 0.0 | 1.7 | 0.00 | 0.00 | 0.00 | 55 | 1012.0 |
| 20260507170053 | 57 | 193 | 0.0 | 0.9 | 0.00 | 0.00 | 0.00 | 51 | 1011.9 |
| 20260507164551 | 58 | 229 | 0.0 | 7.0 | 0.00 | 0.00 | 0.00 | 50 | 1012.0 |
| 20260507163049 | 57 | 229 | 0.9 | 4.3 | 0.00 | 0.00 | 0.00 | 51 | 1012.0 |
| 20260507161548 | 56 | 249 | 0.0 | 7.0 | 0.00 | 0.00 | 0.00 | 53 | 1012.1 |
| 20260507160045 | 56 | 298 | 1.7 | 9.6 | 0.00 | 0.00 | 0.00 | 53 | 1012.3 |
| 20260507154542 | 54 | 284 | 0.0 | 2.6 | 0.00 | 0.00 | 0.00 | 55 | 1012.2 |
| 20260507153043 | 55 | 133 | 0.0 | 3.5 | 0.00 | 0.00 | 0.00 | 52 | 1012.3 |
| 20260507151536 | 55 | 127 | 0.9 | 7.0 | 0.00 | 0.00 | 0.00 | 56 | 1012.3 |
| 20260507150034 | 54 | 196 | 2.6 | 7.0 | 0.00 | 0.00 | 0.00 | 57 | 1012.4 |
| 20260507144529 | 53 | 259 | 0.9 | 4.3 | 0.00 | 0.00 | 0.00 | 62 | 1012.4 |
| 20260507143026 | 52 | 17 | 0.0 | 2.6 | 0.00 | 0.00 | 0.00 | 62 | 1012.3 |
| 20260507141522 | 51 | 215 | 0.0 | 0.9 | 0.00 | 0.00 | 0.00 | 63 | 1012.4 |
| 20260507140019 | 50 | 204 | 0.0 | 3.5 | 0.00 | 0.00 | 0.00 | 68 | 1012.5 |
| 20260507134515 | 48 | 205 | 0.0 | 0.9 | 0.00 | 0.00 | 0.00 | 68 | 1012.7 |
| 20260507133012 | 48 | 205 | 0.0 | 1.7 | 0.00 | 0.00 | 0.00 | 72 | 1012.7 |
| 20260507131516 | 47 | 202 | 0.0 | 3.5 | 0.00 | 0.00 | 0.00 | 75 | 1012.9 |
| 20260507130012 | 46 | 190 | 0.0 | 3.5 | 0.00 | 0.00 | 0.00 | 79 | 1012.9 |
| 20260507124502 | 45 | 188 | 0.0 | 1.7 | 0.00 | 0.00 | 0.00 | 82 | 1012.9 |
| 20260507123058 | 44 | 186 | 0.0 | 1.7 | 0.00 | 0.00 | 0.00 | 85 | 1012.9 |
| 20260507121555 | 43 | 185 | 0.0 | 1.7 | 0.00 | 0.00 | 0.00 | 87 | 1012.8 |
| 20260507120053 | 42 | 182 | 0.0 | 1.7 | 0.00 | 0.00 | 0.00 | 89 | 1012.6 |
| 20260507114550 | 41 | 180 | 0.0 | 2.6 | 0.00 | 0.00 | 0.00 | 90 | 1012.7 |
| 20260507113047 | 39 | 42 | 0.0 | 0.0 | 0.00 | 0.00 | 0.00 | 89 | 1012.7 |
| 20260507111547 | 39 | 40 | 0.0 | 0.0 | 0.00 | 0.00 | 0.00 | 89 | 1012.7 |
| 20260507110043 | 39 | 40 | 0.0 | 0.0 | 0.00 | 0.00 | 0.00 | 89 | 1012.6 |